IRIDIUM 18 [+]

Last updated on Wed May 30 2018 00:19:59 GMT+0000 (Coordinated Universal Time)

1 24872U 97034D 18149.61941008 .00000161 00000-0 46169-4 0 9996 2 24872 86.4241 237.2010 0001811 88.7570 271.3835 14.38610292 93693
UTC large
Height (km)
Speed (km/s)
/
Latitude / Longitude
Inclination (degrees)
Orbital Period (minutes)
Azimuth
Elevation
Range (km)
Doppler Factor

Next 0 passes for location: London (51.5072 / 0.1276)

Sorry there are no passes over London.